Regional Weather Roundup
Issued by NWS

Home | Current Version | Previous Version | Graphics & Text | Print | Product List | Glossary On
Versions: 1 2 3 4 5 6 7 8 9 10 11 12 13 14 15 16 17 18 19 20 21 22 23 24 25 26 27 28 29 30 31 32 33 34 35 36 37 38 39 40 41 42 43 44 45 46 47 48 49 50
000
ASUS43 KLOT 011608
RWRIL

ILLINOIS REGIONAL WEATHER ROUNDUP
NATIONAL WEATHER SERVICE CHICAGO/ROMEOVILLE IL
1100 AM CDT SAT AUG 01 2015

NOTE: "FAIR" INDICATES FEW OR NO CLOUDS BELOW 12,000 FEET WITH NO
SIGNIFICANT WEATHER AND/OR OBSTRUCTIONS TO VISIBILITY.

* THESE STATIONS ARE NOT UNDER NWS QUALITY CONTROL. THEY ALSO MAY NOT
  REPORT WEATHER SUCH AS PRECIPITATION OR FOG.

ILZ001-002-007-009-015-016-024-011700-
NORTHWEST ILLINOIS

CITY           SKY/WX    TMP DP  RH WIND       PRES   REMARKS
MOLINE         SUNNY     83  62  49 SW9       30.01F HX  84
STERLING*      MOSUNNY   82  64  54 W8        29.99S HX  84
SAVANNA*       SUNNY     80  60  50 SW5       30.01S HX  81
$$

ILZ003-004-008-010-011-017-018-011700-
NORTH CENTRAL ILLINOIS

CITY           SKY/WX    TMP DP  RH WIND       PRES   REMARKS
ROCKFORD       MOSUNNY   80  58  46 W6        30.02R HX  80
FREEPORT*      MOSUNNY   79  63  57 W7        30.03R HX  80
ROCHELLE*      SUNNY     79  60  51 W8        30.02S HX  80
DE KALB*       MOSUNNY   79  60  53 W10       30.03R HX  80
PERU*          SUNNY     79  60  51 W5        30.03S HX  80
$$

ILZ005-006-012>014-019>023-011700-
NORTHEAST ILLINOIS

CITY           SKY/WX    TMP DP  RH WIND       PRES   REMARKS
CHICAGO-OHARE  MOSUNNY   80  56  43 W14       29.99R HX  80
CHICAGO-MIDWAY MOSUNNY   83  54  36 W15       29.99R HX  82
AURORA         PTSUNNY   79  60  52 W9        30.02R HX  80
LANSING*       SUNNY     82  53  35 NW10G18   30.00S HX  81
JOLIET*        PTSUNNY   81  60  49 W6        30.02R HX  82
WAUKEGAN       SUNNY     80  56  43 W6        29.98R HX  80
DUPAGE AIRPORT PTSUNNY   79  57  46 W10       30.00R HX  80
KANKAKEE*      SUNNY     80  62  53 W6        30.03R HX  81
WHEELING       MOSUNNY   82  56  40 NW12      30.00R HX  82
MORRIS*        MOSUNNY   80  61  53 W7        30.01S HX  81
ROMEOVILLE*    CLOUDY    78  57  48 NW9       30.02R
NORTHERLY ISL    N/A     81  50  33 W8          N/A  HX  80
$$

LMZ740>746-011700-
SOUTHERN LAKE MICHIGAN

STATION/POSITION SKY/WX   TEMP    WIND        PRES    VSBY  WAVE
                          AIR SEA DIR/SP/G                  HT/PER
                          (F)     (DEG/KT/KT) (MB)    (MI)  (FT/S)
HARRISON CRIB              77     290/ 11/ 12   N/A
BURNHAM HARBOR             81     290/ 11/ 13   N/A
CALUMET HARBOR             80     240/  5/  6   N/A
BURNS HARBOR               74     270/  6/  7 1015.9F
MICHIGAN CITY              72     230/ 10/ 11   N/A
MICHIGAN CITY 6N           73 74  260/  8/ 10   N/A           2/ 4
ST. JOSEPH                 72 74  290/  8/ 10   N/A           3/ 4
$$

ILZ025>027-034>036-040-047-049-050-058-095>099-011700-
WEST-CENTRAL ILLINOIS

CITY           SKY/WX    TMP DP  RH WIND       PRES   REMARKS
QUINCY         MOSUNNY   81  59  47 SE6       30.06S HX  81
GALESBURG*     SUNNY     80  64  58 S7        30.04F HX  81
MACOMB*        SUNNY     81  60  48 SW5       30.07S HX  82
JACKSONVILLE*  SUNNY     83  63  49 S3        30.07S HX  84
PITTSFIELD*    SUNNY     82  62  50 S5        30.08S HX  82
$$

ILZ028>032-037-038-041>044-048-051>054-059>061-011700-
CENTRAL ILLINOIS

CITY           SKY/WX    TMP DP  RH WIND       PRES   REMARKS
PONTIAC        SUNNY     80  64  59 W5        30.05R HX  81
BLOOMINGTON    SUNNY     82  57  42 NW6       30.07R HX  82
DECATUR        SUNNY     84  55  36 NE5       30.07R HX  83
PEORIA         SUNNY     83  61  47 SW8       30.04S HX  83
LACON*         SUNNY     79  62  55 SW7       30.03R HX  80
LINCOLN*       SUNNY     83  60  44 S3        30.05S HX  83
SPRINGFIELD    SUNNY     83  58  42 SW3       30.07R HX  83
TAYLORVILLE    SUNNY     81  57  44 CALM      30.07R HX  81
$$

ILZ033-039-045-046-055>057-062-063-011700-
EAST-CENTRAL ILLINOIS

CITY           SKY/WX    TMP DP  RH WIND       PRES   REMARKS
CHAMPAIGN      SUNNY     81  60  48 W5        30.06R HX  82
DANVILLE*      SUNNY     78  62  57 W5        30.03R HX  80
RANTOUL*       SUNNY     82  59  45 NW6       30.06R HX  82
MATTOON        SUNNY     83  50  31 N6        30.06S HX  81
PARIS*         SUNNY     80  58  46 CALM      30.06S HX  80
$$

ILZ079-100>102-011700-
SOUTHWEST ILLINOIS

CITY           SKY/WX    TMP DP  RH WIND       PRES   REMARKS
BELLEVILLE     MOSUNNY   82  67  60 NE6       30.06S HX  84
CAHOKIA*       PTSUNNY   82  59  45 E6        30.07S HX  82
SPARTA*        MOSUNNY   81  62  51 E6        30.08S HX  82
$$

ILZ064>066-069>071-074>076-080>082-084>086-088>090-092>094-011700-
SOUTH-CENTRAL ILLINOIS

CITY           SKY/WX    TMP DP  RH WIND       PRES   REMARKS
CARBONDALE     SUNNY     83  63  50 E5        30.06S HX  84
CAIRO*         SUNNY     83  71  65 NE6       30.05R HX  88
EFFINGHAM*     SUNNY     83  49  31 N5        30.08R HX  81
MARION         MOSUNNY   84  61  45 NE7       30.07S HX  84
MT. VERNON     SUNNY     84  61  45 NE9       30.08R HX  84
CENTRALIA*     MOSUNNY   83  58  42 NE5       30.08R HX  82
SALEM*         SUNNY     82  59  44 NE6       30.08R HX  82
METROPOLIS*    SUNNY     84  74  73 N3        30.05S HX  91
$$

ILZ067-068-072-073-078-083-087-091-011700-
SOUTHEAST ILLINOIS

CITY           SKY/WX    TMP DP  RH WIND       PRES   REMARKS
LAWRENCEVILLE  SUNNY     82  58  43 NW9       30.06R HX  82
FLORA*         SUNNY     82  55  39 N6        30.07S HX  81
FAIRFIELD*     SUNNY     81  62  52 NE6       30.06R HX  82
HARRISBURG*    SUNNY     82  62  51 NE5       30.07R HX  82
ROBINSON*      SUNNY     80  57  45 N5        30.07R HX  80
CARMI*         SUNNY     81  57  42 CALM      30.05S HX  81
$$

ABBREVIATIONS USED IN REMARKS
   TC - TEMPERATURE IN CELSIUS
  WCI - WIND CHILL INDEX
   HX - HEAT INDEX
  VSB - VISIBILITY
$$




USA.gov is the U.S. government's official web portal to all federal, state and local government web resources and services.